Wind_Speed
12 12 12 11 11 11 11 11 11 10 10 9 9 9 10 11 11 12 13 13 14 15 15 16 18 18 19 20 20 20 21 21 21 22 24 25 25 25 26 26 27 28 28
13 13 12 12 12 12 12 12 12 12 11 11 10 10 11 12 13 13 14 15 15 16 17 17 18 19 20 21 22 22 23 23 23 24 26 27 27 28 28 29 30 30 30
13 13 13 13 13 13 13 13 13 13 12 12 12 12 12 13 14 14 15 15 16 17 17 19 20 20 21 23 23 24 24 25 26 27 27 28 28 29 30 31 31 32 32
14 15 15 14 14 14 14 14 14 13 13 13 13 13 14 14 15 16 16 17 17 18 19 20 20 21 22 23 24 25 26 27 28 28 28 29 29 30 31 31 32 33 33
15 15 16 15 14 15 15 15 15 14 14 14 14 15 15 15 15 15 16 17 18 18 19 20 21 22 23 23 24 26 27 28 28 29 28 28 29 29 30 30 31 31 32
16 16 16 16 15 15 16 15 15 16 15 15 15 15 15 15 15 16 17 18 19 20 21 21 22 23 23 24 24 24 25 25 26 26 26 27 28 29 29 30 31 32 32
18 18 18 17 16 16 16 16 16 16 16 16 16 16 16 16 16 17 18 19 20 21 21 22 23 23 23 24 24 24 25 25 25 25 27 28 29 29 30 31 32 33 34
19 18 18 18 18 17 17 17 17 17 17 17 17 17 17 17 18 18 18 20 21 22 23 23 24 24 24 25 24 25 26 26 26 27 28 29 30 31 31 32 33 33 34
20 19 19 19 19 19 19 19 19 18 18 18 18 18 18 19 19 19 20 20 21 22 23 24 24 25 25 26 26 26 27 27 28 28 29 30 30 31 31 32 33 34 35
21 20 20 21 21 20 20 20 19 19 20 20 20 19 20 20 20 20 21 22 23 24 25 25 26 26 26 26 26 27 27 28 28 29 30 30 30 31 32 33 34 34 35
22 20 21 22 22 21 22 22 22 22 22 22 21 21 21 21 22 22 23 23 24 25 26 26 26 26 26 26 26 27 28 28 28 29 30 30 31 32 33 34 34 35 35
24 23 23 23 23 23 23 23 24 24 24 23 22 22 21 21 22 23 24 24 26 26 26 27 27 26 27 27 27 28 29 29 29 30 30 31 32 32 33 33 34 34 34
24 24 24 24 24 25 24 24 24 25 25 24 23 23 23 23 24 25 25 26 27 27 27 27 27 28 28 28 28 28 28 29 30 31 30 31 31 32 33 33 33 32 33
25 26 26 26 26 26 25 25 25 25 25 24 24 24 24 25 25 26 26 27 27 28 28 28 28 28 28 28 28 28 29 29 30 30 30 31 31 31 31 31 31 31 30
27 27 27 27 28 26 25 26 26 26 26 26 25 25 25 26 26 26 27 27 28 28 28 28 28 28 28 28 28 29 29 30 30 30 31 31 31 31 31 31 31 30 29
28 28 28 28 28 27 26 26 27 27 27 27 26 26 26 27 26 27 27 27 28 28 28 28 28 28 28 28 29 29 30 30 30 31 31 31 31 31 31 31 30 29 29
28 28 27 28 27 27 27 27 27 27 26 26 27 27 27 27 27 27 28 28 28 28 28 28 28 28 28 28 29 29 29 29 30 30 31 31 30 30 30 30 30 29 29
29 28 28 28 28 28 28 27 27 27 26 26 27 26 26 27 27 27 28 28 28 28 28 28 27 27 28 28 29 29 29 29 30 30 30 30 30 30 30 29 29 28 29
29 29 28 28 28 28 28 28 27 27 27 27 27 26 26 27 27 28 28 28 28 28 28 27 27 27 28 28 29 29 29 29 30 30 30 30 29 29 29 29 29 29 29
30 29 29 29 28 28 28 28 28 28 28 27 27 27 27 27 28 28 28 28 29 28 27 27 27 28 28 28 29 29 29 29 29 29 29 29 29 29 29 29 29 29 29
30 29 29 29 29 29 28 28 28 29 28 27 27 28 28 28 28 28 28 29 28 27 27 27 28 28 29 29 29 29 29 29 29 29 29 29 29 29 29 29 29 28 28
30 30 29 29 29 29 29 29 28 28 27 27 27 27 28 28 28 28 28 27 27 27 28 28 28 28 28 29 29 29 29 29 29 30 29 29 29 29 29 29 29 29 28
31 30 30 29 29 29 29 29 29 28 28 27 26 27 27 28 27 27 27 27 27 27 28 28 28 29 29 29 29 29 29 29 29 29 29 29 29 29 29 29 29 29 29
31 30 30 29 29 29 29 29 27 27 27 26 26 27 27 27 27 26 26 27 27 27 28 28 28 29 29 30 30 29 29 29 29 29 29 29 29 30 30 30 29 29 29
30 30 30 29 28 28 28 27 27 27 27 27 27 27 27 27 27 26 26 26 26 27 28 28 28 29 29 29 29 29 29 29 29 30 30 30 30 31 31 30 30 30 30
29 29 28 28 28 27 27 27 27 27 27 27 27 27 27 27 27 26 26 26 27 27 28 27 28 28 29 29 29 29 29 30 31 31 31 31 31 31 31 31 31 31 30
Wind_Direction
354 353 352 348 347 346 343 339 337 333 329 319 310 301 296 293 290 287 291 292 289 287 285 285 284 285 287 286 286 287 286 286 285 283 285 286 285 285 285 284 285 284 284
348 348 347 344 341 340 337 333 331 329 326 321 312 305 302 298 295 292 292 291 288 287 286 285 285 286 289 289 288 288 287 286 285 285 286 286 286 285 285 284 284 285 285
340 339 338 336 334 333 332 329 327 325 322 317 313 308 304 301 298 295 292 291 290 289 288 288 288 289 291 289 289 289 287 286 286 286 287 288 287 286 286 286 286 286 286
335 334 335 332 330 329 329 327 327 322 318 314 311 310 306 303 301 299 295 293 291 290 290 292 292 291 292 292 291 290 289 289 288 288 288 288 288 287 288 288 287 288 288
328 329 330 330 327 327 328 327 325 321 316 314 311 309 307 305 304 303 302 300 295 295 295 295 294 294 294 294 292 292 292 290 291 291 292 292 291 291 291 292 291 291 292
321 322 323 325 325 324 325 329 329 324 319 316 317 314 313 310 307 306 305 304 303 300 299 299 299 299 299 295 293 294 296 295 296 296 295 294 294 294 293 293 294 293 292
319 319 318 319 319 320 321 324 324 323 320 317 316 317 317 316 313 312 308 305 305 303 302 301 302 304 303 301 299 299 299 298 297 297 296 296 295 295 296 296 295 294 294
314 314 313 314 313 313 315 319 319 318 318 317 314 314 314 314 314 313 310 308 305 303 303 304 304 304 303 303 302 301 300 299 299 299 299 298 297 297 298 298 298 297 296
310 309 311 311 311 311 310 312 315 316 316 316 313 312 312 312 311 311 310 309 309 308 308 307 305 304 302 301 300 301 300 299 299 300 300 300 301 301 301 300 299 299 298
304 304 305 307 309 310 311 311 312 312 312 313 312 311 310 309 310 310 309 310 310 310 309 307 305 304 303 302 302 302 302 302 302 302 302 303 303 303 303 302 301 300 300
302 301 302 303 304 306 308 308 309 310 309 309 310 309 309 309 308 308 308 309 310 311 310 308 307 305 306 304 303 302 303 303 304 304 304 304 304 304 304 304 304 303 302
301 302 303 305 304 303 305 305 305 307 307 306 306 308 309 308 308 308 309 309 310 310 310 309 307 306 307 306 305 304 305 306 306 306 306 307 307 307 307 307 307 307 306
301 300 300 302 305 305 304 304 305 306 306 304 304 305 307 307 307 307 308 309 310 310 310 308 308 307 306 305 305 306 306 307 308 308 308 309 309 310 309 309 309 308 307
298 298 300 301 303 302 303 302 302 302 304 304 303 304 304 305 306 307 308 309 309 308 309 308 307 306 306 305 306 306 307 308 309 310 310 311 312 312 312 311 311 311 310
296 297 299 302 303 301 300 299 299 299 299 300 301 301 302 304 306 307 307 308 309 310 309 308 307 306 306 306 307 306 308 309 310 311 311 312 313 314 313 313 312 311 311
295 297 299 301 301 300 298 297 297 298 298 298 299 299 301 303 306 307 307 308 310 310 310 309 308 307 307 307 308 309 309 310 311 311 312 312 313 314 314 313 313 312 311
293 295 297 299 299 298 298 298 297 297 297 298 300 301 303 304 305 306 307 307 308 308 309 309 309 308 308 308 308 309 309 309 311 312 312 313 313 314 314 314 314 313 313
291 292 294 295 296 298 297 297 298 296 296 297 298 301 302 303 304 305 306 306 307 307 307 307 308 308 308 308 308 309 310 310 311 312 313 313 315 316 316 315 315 314 313
289 291 292 294 295 296 297 296 297 296 296 296 297 300 301 302 303 304 305 306 306 306 306 306 307 308 309 310 310 311 312 312 312 313 313 314 315 315 315 315 314 314 314
287 288 290 293 294 295 296 296 296 296 294 294 296 298 300 301 302 303 304 305 304 304 304 306 307 308 309 310 311 312 313 313 314 314 315 315 315 315 315 315 315 315 315
285 287 289 291 293 294 295 296 296 295 293 292 294 297 299 300 301 302 303 304 304 303 305 307 308 310 310 311 311 312 312 313 314 314 314 315 315 315 316 315 316 316 316
284 286 288 290 292 294 294 293 295 295 293 292 293 296 298 300 302 302 302 302 303 304 305 308 310 311 310 310 311 311 312 312 313 313 313 314 315 315 315 315 316 316 316
284 285 287 289 291 292 293 293 293 293 292 292 295 297 299 301 302 303 303 303 305 306 307 308 309 309 309 310 310 311 312 312 313 313 314 314 315 316 316 316 315 315 315
283 285 286 287 289 290 290 291 291 290 290 292 294 296 298 300 301 301 301 302 304 306 307 308 308 308 309 310 310 310 311 312 313 314 314 315 315 316 316 315 315 314 314
282 284 284 285 287 288 289 288 287 288 290 292 294 296 297 299 300 299 299 301 303 305 306 307 308 308 308 310 311 311 311 312 312 312 313 313 314 315 314 314 313 313 313
281 282 282 284 285 286 287 287 288 289 290 292 293 295 297 298 298 298 299 301 303 305 306 307 308 309 309 309 310 310 311 311 311 312 312 312 313 313 312 312 312 312 312
Height
5903 5901 5899 5897 5895 5894 5892 5890 5888 5886 5885 5883 5882 5881 5880 5879 5879 5878 5877 5876 5875 5874 5873 5872 5871 5870 5869 5867 5866 5865 5863 5862 5861 5860 5858 5856 5854 5853 5851 5849 5848 5846 5844
5903 5901 5899 5897 5895 5893 5891 5889 5887 5885 5883 5882 5880 5879 5878 5877 5876 5875 5874 5873 5872 5871 5869 5868 5867 5866 5864 5863 5861 5859 5858 5856 5855 5854 5852 5850 5848 5846 5844 5843 5841 5838 5837
5902 5900 5898 5896 5894 5892 5890 5888 5886 5884 5882 5880 5879 5877 5876 5875 5873 5872 5871 5870 5868 5867 5865 5864 5862 5861 5859 5857 5856 5854 5852 5850 5849 5847 5845 5843 5841 5839 5837 5835 5833 5831 5828
5901 5898 5896 5894 5892 5890 5888 5886 5883 5881 5880 5878 5876 5875 5873 5872 5870 5869 5867 5866 5864 5863 5861 5859 5858 5856 5854 5852 5850 5848 5846 5844 5841 5840 5838 5836 5833 5831 5829 5827 5825 5822 5820
5899 5897 5894 5892 5890 5888 5886 5884 5881 5879 5877 5875 5874 5872 5870 5868 5867 5865 5863 5862 5860 5858 5856 5855 5853 5850 5848 5846 5844 5841 5839 5837 5834 5832 5830 5828 5826 5823 5821 5819 5816 5814 5811
5896 5894 5892 5890 5888 5886 5884 5882 5879 5877 5875 5873 5871 5869 5867 5865 5863 5861 5860 5858 5856 5854 5852 5850 5847 5845 5842 5840 5837 5835 5832 5830 5828 5825 5823 5821 5818 5816 5814 5811 5808 5806 5803
5893 5891 5889 5887 5885 5884 5881 5879 5877 5875 5872 5871 5868 5866 5864 5861 5859 5857 5855 5853 5851 5849 5847 5844 5842 5839 5837 5834 5831 5828 5826 5823 5821 5819 5816 5814 5811 5809 5806 5803 5800 5797 5794
5890 5888 5886 5884 5882 5880 5878 5876 5874 5871 5869 5867 5865 5863 5860 5858 5856 5853 5851 5849 5846 5844 5841 5838 5836 5834 5831 5828 5825 5823 5820 5817 5815 5812 5809 5806 5804 5801 5798 5795 5791 5788 5785
5886 5884 5882 5880 5878 5876 5874 5872 5870 5868 5866 5863 5861 5859 5856 5854 5852 5849 5847 5844 5841 5838 5836 5833 5831 5828 5825 5822 5819 5817 5814 5811 5808 5805 5802 5799 5796 5793 5789 5786 5783 5779 5776
5881 5879 5878 5876 5874 5872 5870 5868 5866 5864 5861 5859 5856 5854 5852 5849 5847 5845 5842 5839 5837 5834 5831 5827 5824 5821 5818 5815 5813 5810 5807 5804 5801 5798 5794 5791 5788 5785 5781 5777 5774 5770 5766
5876 5873 5872 5871 5869 5868 5866 5864 5861 5859 5857 5854 5851 5849 5847 5844 5842 5839 5837 5834 5831 5828 5825 5821 5818 5815 5812 5809 5806 5803 5800 5797 5793 5790 5787 5783 5780 5776 5773 5768 5764 5761 5757
5872 5870 5868 5866 5864 5862 5860 5858 5856 5854 5851 5849 5846 5844 5841 5839 5837 5834 5831 5828 5825 5822 5818 5815 5812 5809 5806 5803 5799 5796 5793 5790 5786 5783 5779 5776 5772 5768 5764 5760 5756 5751 5748
5867 5865 5863 5861 5859 5857 5854 5852 5850 5848 5845 5843 5841 5839 5836 5833 5831 5828 5825 5822 5819 5816 5812 5809 5806 5802 5799 5796 5792 5789 5786 5783 5779 5775 5771 5768 5764 5760 5756 5751 5747 5743 5739
5861 5859 5857 5855 5853 5850 5848 5846 5844 5842 5840 5838 5835 5833 5830 5827 5825 5822 5819 5816 5813 5809 5806 5802 5799 5796 5793 5789 5786 5782 5779 5776 5772 5768 5764 5760 5756 5752 5748 5744 5740 5735 5731
5854 5853 5851 5848 5846 5843 5841 5840 5838 5836 5834 5832 5829 5826 5824 5821 5818 5815 5812 5809 5806 5803 5799 5796 5792 5789 5786 5782 5779 5775 5772 5768 5764 5761 5757 5752 5748 5744 5740 5736 5732 5728 5724
5848 5846 5844 5842 5839 5837 5835 5833 5831 5829 5827 5824 5822 5820 5817 5814 5811 5808 5805 5802 5799 5796 5792 5789 5785 5782 5778 5775 5772 5768 5765 5761 5757 5753 5749 5745 5741 5737 5733 5728 5724 5720 5717
5841 5839 5837 5835 5832 5830 5828 5826 5824 5821 5819 5817 5815 5813 5810 5807 5805 5802 5799 5795 5792 5789 5785 5782 5778 5775 5771 5768 5765 5761 5758 5754 5750 5746 5742 5738 5733 5729 5725 5721 5717 5713 5709
5833 5831 5830 5828 5826 5823 5821 5819 5817 5815 5813 5810 5808 5805 5803 5800 5798 5795 5792 5788 5785 5782 5778 5775 5771 5768 5764 5761 5757 5754 5750 5747 5743 5739 5734 5730 5726 5722 5718 5714 5710 5706 5702
5826 5824 5822 5820 5818 5816 5814 5812 5810 5807 5805 5803 5800 5798 5796 5793 5790 5788 5784 5781 5778 5775 5771 5768 5764 5761 5758 5754 5750 5747 5743 5739 5735 5731 5727 5723 5719 5715 5711 5707 5703 5699 5695
5818 5816 5815 5813 5811 5809 5807 5804 5802 5800 5798 5795 5793 5791 5788 5786 5783 5780 5777 5774 5771 5767 5764 5761 5758 5754 5751 5747 5744 5740 5736 5732 5728 5724 5720 5716 5712 5708 5704 5700 5696 5692 5688
5809 5808 5807 5805 5803 5801 5799 5796 5794 5792 5790 5788 5785 5783 5781 5778 5776 5773 5770 5767 5764 5760 5757 5754 5751 5747 5744 5740 5737 5733 5729 5725 5721 5717 5713 5709 5705 5701 5697 5693 5689 5685 5681
5801 5799 5798 5797 5795 5793 5791 5789 5786 5784 5782 5780 5778 5776 5773 5771 5768 5765 5762 5759 5756 5753 5750 5747 5743 5740 5737 5733 5729 5726 5722 5718 5714 5710 5706 5702 5698 5694 5690 5686 5682 5679 5675
5792 5790 5789 5788 5786 5784 5782 5780 5778 5776 5774 5772 5770 5768 5766 5763 5760 5758 5755 5752 5749 5746 5743 5740 5736 5733 5729 5726 5722 5718 5715 5711 5707 5703 5699 5695 5691 5687 5683 5679 5675 5671 5668
5783 5782 5780 5779 5778 5776 5774 5772 5770 5768 5766 5765 5763 5760 5758 5755 5753 5750 5747 5745 5742 5739 5735 5732 5729 5725 5722 5718 5715 5711 5707 5703 5700 5696 5692 5688 5684 5680 5676 5672 5668 5664 5660
5774 5773 5772 5770 5769 5768 5766 5764 5763 5761 5759 5757 5755 5752 5750 5748 5745 5743 5740 5737 5734 5731 5728 5725 5721 5718 5714 5711 5707 5704 5700 5696 5693 5689 5685 5681 5677 5673 5669 5665 5661 5657 5653
5765 5764 5763 5762 5761 5760 5758 5757 5755 5753 5751 5749 5747 5745 5742 5740 5738 5735 5732 5730 5727 5724 5720 5717 5714 5710 5707 5704 5700 5697 5693 5689 5685 5681 5677 5673 5669 5665 5661 5657 5653 5649 5646